Weather History for KD39 - October, 2012

Change the Weather History Date:

Friday, October 26, 2012

  Actual Average (KGHW) Record (KGHW)
Temperature  
Mean Temperature 34 °F -  
Max Temperature 35 °F 57 °F 82 °F (1955)
Min Temperature 32 °F 33 °F 19 °F (1980)
Degree Days  
Heating Degree Days 32    
Moisture  
Dew Point 23 °F    
Average Humidity 68    
Maximum Humidity 80    
Minimum Humidity 56    
Precipitation  
Precipitation 0.00 in - - ()
Sea Level Pressure  
Sea Level Pressure 30.27 in    
Wind  
Wind Speed 13 mph (West)    
Max Wind Speed 20 mph    
Max Gust Speed 30 mph    
Visibility 10 miles    
Events      
Averages and records for this station are not official NWS values.
T = Trace of Precipitation, MM = Missing Value Source: NWS Daily Summary

Daily Weather History Graph

Daily Weather History Graph

Search for Another Location

Airport or City:

Trip Planner

Search our weather history database for the weather conditions in past years. The results will help you decide how hot, cold, wet, or windy it might be!

Date:

Astronomy

Oct. 26, 2012 Rise Set
Actual Time 7:51 AM CDT 6:14 PM CDT
Civil Twilight 7:21 AM CDT 6:45 PM CDT
Nautical Twilight 6:46 AM CDT 7:19 PM CDT
Astronomical Twilight 6:12 AM CDT 7:54 PM CDT
Moon 4:37 PM CDT (10/26) 4:41 AM CDT (10/26)
Length of Visible Light 11h 23m
Length of Day
10h 22m
Waxing Gibbous, 91% of the Moon is Illuminated
Oct 26
Waxing Gibbous
Oct 29
Full
Nov 6
Last Quarter
Nov 13
New
Nov 20
First Quarter

Hourly Weather History & Observations

Time (CDT) Temp. Windchill Dew Point Humidity Pressure Visibility Wind Dir Wind Speed Gust Speed Precip Events Conditions
12:15 AM 32.0 °F 22.5 °F 26.6 °F 80% 30.14 in 10.0 mi West 12.7 mph 19.6 mph N/A   Overcast
12:35 AM 33.8 °F 22.8 °F 26.6 °F 75% 30.14 in 10.0 mi West 18.4 mph 24.2 mph N/A   Overcast
1:15 AM 33.8 °F 24.3 °F 26.6 °F 75% 30.16 in 10.0 mi West 13.8 mph 25.3 mph N/A   Overcast
1:35 AM 32.0 °F 22.5 °F 26.6 °F 80% 30.16 in 10.0 mi West 12.7 mph 23.0 mph N/A   Overcast
1:55 AM 32.0 °F 22.1 °F 26.6 °F 80% 30.16 in 10.0 mi West 13.8 mph 20.7 mph N/A   Overcast
2:35 AM 32.0 °F 22.1 °F 26.6 °F 80% 30.18 in 10.0 mi West 13.8 mph 19.6 mph N/A   Overcast
2:55 AM 32.0 °F 21.6 °F 26.6 °F 80% 30.18 in 10.0 mi West 15.0 mph 20.7 mph N/A   Overcast
3:15 AM 32.0 °F 22.1 °F 26.6 °F 80% 30.18 in 10.0 mi West 13.8 mph 19.6 mph N/A   Overcast
3:35 AM 32.0 °F 21.6 °F 26.6 °F 80% 30.19 in 10.0 mi WNW 15.0 mph 20.7 mph N/A   Overcast
3:55 AM 32.0 °F 22.1 °F 26.6 °F 80% 30.19 in 10.0 mi West 13.8 mph 19.6 mph N/A   Overcast
4:15 AM 32.0 °F 22.5 °F 26.6 °F 80% 30.19 in 10.0 mi West 12.7 mph 16.1 mph N/A   Overcast
4:35 AM 32.0 °F 22.1 °F 24.8 °F 75% 30.19 in 10.0 mi WNW 13.8 mph 18.4 mph N/A   Overcast
4:55 AM 32.0 °F 21.6 °F 24.8 °F 75% 30.19 in 10.0 mi WNW 15.0 mph 19.6 mph N/A   Overcast
5:15 AM 32.0 °F 22.1 °F 24.8 °F 75% 30.21 in 10.0 mi West 13.8 mph 19.6 mph N/A   Overcast
5:35 AM 32.0 °F 22.5 °F 24.8 °F 75% 30.22 in 10.0 mi West 12.7 mph 20.7 mph N/A   Overcast
5:55 AM 32.0 °F 22.5 °F 23.0 °F 69% 30.23 in 10.0 mi West 12.7 mph 19.6 mph N/A   Overcast
6:15 AM 32.0 °F 22.5 °F 23.0 °F 69% 30.24 in 10.0 mi West 12.7 mph 20.7 mph N/A   Overcast
6:35 AM 32.0 °F 21.6 °F 23.0 °F 69% 30.24 in 10.0 mi WNW 15.0 mph 28.8 mph N/A   Overcast
6:55 AM 32.0 °F 21.2 °F 21.2 °F 64% 30.25 in 10.0 mi West 16.1 mph 26.5 mph N/A   Overcast
7:15 AM 32.0 °F 20.8 °F 23.0 °F 69% 30.26 in 10.0 mi West 17.3 mph 21.9 mph N/A   Overcast
7:55 AM 32.0 °F 23.0 °F 23.0 °F 69% 30.27 in 10.0 mi WNW 11.5 mph - N/A   Overcast
8:35 AM 32.0 °F 21.6 °F 21.2 °F 64% 30.29 in 10.0 mi West 15.0 mph 20.7 mph N/A   Overcast
8:55 AM 32.0 °F 21.6 °F 21.2 °F 64% 30.29 in 10.0 mi WNW 15.0 mph 23.0 mph N/A   Overcast
9:15 AM 32.0 °F 20.8 °F 19.4 °F 60% 30.30 in 10.0 mi WNW 17.3 mph 29.9 mph N/A   Overcast
9:35 AM 32.0 °F 22.1 °F 21.2 °F 64% 30.31 in 10.0 mi West 13.8 mph 24.2 mph N/A   Overcast
9:55 AM 33.8 °F 24.8 °F 21.2 °F 60% 30.31 in 10.0 mi West 12.7 mph 19.6 mph N/A   Overcast
10:15 AM 33.8 °F 23.9 °F 21.2 °F 60% 30.31 in 10.0 mi WNW 15.0 mph 23.0 mph N/A   Overcast
10:35 AM 33.8 °F 23.5 °F 21.2 °F 60% 30.31 in 10.0 mi West 16.1 mph 20.7 mph N/A   Overcast
10:55 AM 33.8 °F 23.9 °F 21.2 °F 60% 30.31 in 10.0 mi WNW 15.0 mph 20.7 mph N/A   Overcast
11:15 AM 33.8 °F 24.3 °F 21.2 °F 60% 30.32 in 10.0 mi WNW 13.8 mph 20.7 mph N/A   Overcast
11:35 AM 33.8 °F 24.8 °F 21.2 °F 60% 30.32 in 10.0 mi West 12.7 mph 19.6 mph N/A   Overcast
11:55 AM 33.8 °F 24.3 °F 21.2 °F 60% 30.32 in 10.0 mi WNW 13.8 mph 21.9 mph N/A   Overcast
12:15 PM 33.8 °F 24.3 °F 23.0 °F 65% 30.32 in 10.0 mi West 13.8 mph 21.9 mph N/A   Overcast
12:35 PM 33.8 °F 25.3 °F 23.0 °F 65% 30.32 in 10.0 mi West 11.5 mph 18.4 mph N/A   Overcast
12:55 PM 35.6 °F 26.2 °F 21.2 °F 56% 30.31 in 10.0 mi WNW 15.0 mph 25.3 mph N/A   Overcast
1:15 PM 35.6 °F 24.8 °F 21.2 °F 56% 30.31 in 10.0 mi West 19.6 mph 25.3 mph N/A   Overcast
1:35 PM 35.6 °F 27.1 °F 21.2 °F 56% 30.31 in 10.0 mi WNW 12.7 mph 21.9 mph N/A   Overcast
1:55 PM 33.8 °F 24.3 °F 21.2 °F 60% 30.31 in 10.0 mi WNW 13.8 mph - N/A   Overcast
2:15 PM 35.6 °F 27.1 °F 21.2 °F 56% 30.30 in 10.0 mi West 12.7 mph 19.6 mph N/A   Overcast
2:35 PM 33.8 °F 23.9 °F 23.0 °F 65% 30.30 in 10.0 mi West 15.0 mph 21.9 mph N/A   Overcast
2:55 PM 33.8 °F 23.5 °F 21.2 °F 60% 30.30 in 10.0 mi West 16.1 mph 24.2 mph N/A   Overcast
3:15 PM 35.6 °F 26.6 °F 21.2 °F 56% 30.30 in 10.0 mi West 13.8 mph - N/A   Overcast
3:35 PM 35.6 °F 27.1 °F 21.2 °F 56% 30.30 in 10.0 mi West 12.7 mph 20.7 mph N/A   Overcast
3:55 PM 33.8 °F 25.3 °F 23.0 °F 65% 30.30 in 10.0 mi West 11.5 mph - N/A   Overcast
4:15 PM 35.6 °F 25.5 °F 21.2 °F 56% 30.30 in 10.0 mi West 17.3 mph 24.2 mph N/A   Overcast
4:35 PM 33.8 °F 23.9 °F 21.2 °F 60% 30.30 in 10.0 mi West 15.0 mph 20.7 mph N/A   Overcast
4:55 PM 33.8 °F 24.3 °F 21.2 °F 60% 30.30 in 10.0 mi West 13.8 mph 21.9 mph N/A   Overcast
5:15 PM 35.6 °F 26.6 °F 21.2 °F 56% 30.30 in 10.0 mi West 13.8 mph 17.3 mph N/A   Overcast
5:35 PM 33.8 °F 25.8 °F 23.0 °F 65% 30.30 in 10.0 mi West 10.4 mph - N/A   Overcast
5:55 PM 33.8 °F 26.4 °F 19.4 °F 56% 30.30 in 10.0 mi West 9.2 mph - N/A   Overcast
6:15 PM 32.0 °F 26.4 °F 21.2 °F 64% 30.30 in 10.0 mi West 5.8 mph - N/A   Overcast
6:35 PM 32.0 °F 25.6 °F 23.0 °F 69% 30.31 in 10.0 mi West 6.9 mph - N/A   Overcast
6:55 PM 32.0 °F 25.6 °F 23.0 °F 69% 30.31 in 10.0 mi West 6.9 mph - N/A   Overcast
7:15 PM 32.0 °F 26.4 °F 23.0 °F 69% 30.31 in 10.0 mi West 5.8 mph - N/A   Overcast
7:35 PM 32.0 °F 26.4 °F 23.0 °F 69% 30.31 in 10.0 mi WSW 5.8 mph - N/A   Overcast
7:55 PM 32.0 °F 25.6 °F 23.0 °F 69% 30.31 in 10.0 mi WSW 6.9 mph - N/A   Overcast
8:15 PM 32.0 °F 26.4 °F 23.0 °F 69% 30.31 in 10.0 mi WSW 5.8 mph - N/A   Overcast
8:35 PM 32.0 °F 26.4 °F 23.0 °F 69% 30.31 in 10.0 mi West 5.8 mph - N/A   Overcast
8:55 PM 32.0 °F 26.4 °F 23.0 °F 69% 30.31 in 10.0 mi West 5.8 mph - N/A   Overcast
9:15 PM 32.0 °F 25.6 °F 23.0 °F 69% 30.31 in 10.0 mi West 6.9 mph - N/A   Overcast
9:35 PM 32.0 °F 26.4 °F 23.0 °F 69% 30.31 in 10.0 mi West 5.8 mph - N/A   Overcast
9:55 PM 32.0 °F 26.4 °F 23.0 °F 69% 30.31 in 10.0 mi WSW 5.8 mph - N/A   Overcast
10:15 PM 32.0 °F 28.7 °F 23.0 °F 69% 30.31 in 10.0 mi SW 3.5 mph - N/A   Overcast
10:35 PM 32.0 °F 26.4 °F 24.8 °F 75% 30.31 in 10.0 mi SW 5.8 mph - N/A   Overcast
10:55 PM 32.0 °F 26.4 °F 24.8 °F 75% 30.31 in 10.0 mi SW 5.8 mph - N/A   Overcast
11:15 PM 32.0 °F 26.4 °F 24.8 °F 75% 30.31 in 10.0 mi SW 5.8 mph - N/A   Overcast
11:35 PM 32.0 °F 26.4 °F 24.8 °F 75% 30.30 in 10.0 mi SW 5.8 mph - N/A   Overcast
11:55 PM 32.0 °F 26.4 °F 26.6 °F 80% 30.30 in 10.0 mi SW 5.8 mph - N/A   Overcast